Grayling, MI

3:31 PM EDT on July 26, 2017 (GMT -0400)
Grayling

Weather History for KGOV - July, 2013

Change the Weather History Date:

Tuesday, July 23, 2013

  Actual Average (KHTL) Record (KHTL)
Temperature  
Mean Temperature 60 °F -  
Max Temperature 73 °F 80 °F 95 °F (1940)
Min Temperature 48 °F 55 °F 35 °F (1947)
Degree Days  
Heating Degree Days 4    
Growing Degree Days 10 (Base 50)    
Moisture  
Dew Point 55 °F    
Average Humidity 73    
Maximum Humidity 100    
Minimum Humidity 55    
Precipitation  
Precipitation 0.00 in - - ()
Sea Level Pressure  
Sea Level Pressure 29.79 in    
Wind  
Wind Speed 10 mph (WNW)    
Max Wind Speed 24 mph    
Max Gust Speed 32 mph    
Visibility 10 miles    
Events Rain    
Averages and records for this station are not official NWS values.
T = Trace of Precipitation, MM = Missing Value Source: NWS Daily Summary

Daily Weather History Graph

Daily Weather History Graph

Search for Another Location

Airport or City:

Trip Planner

Search our weather history database for the weather conditions in past years. The results will help you decide how hot, cold, wet, or windy it might be!

Date:

Astronomy

Jul. 23, 2013 Rise Set
Actual Time 6:15 AM EDT 9:14 PM EDT
Civil Twilight 5:41 AM EDT 9:48 PM EDT
Nautical Twilight 4:56 AM EDT 10:33 PM EDT
Astronomical Twilight 4:04 AM EDT 11:25 PM EDT
Moon 9:35 PM EDT (7/23) 7:28 AM EDT (7/23)
Length of Visible Light 16h 07m
Length of Day
14h 58m
Full, 99% of the Moon is Illuminated
Jul 23
Full
Jul 29
Last Quarter
Aug 6
New
Aug 14
First Quarter
Aug 20
Full

Hourly Weather History & Observations

Time (EDT) Temp. Dew Point Humidity Pressure Visibility Wind Dir Wind Speed Gust Speed Precip Events Conditions
12:14 AM 73.6 °F 61.7 °F 66% 29.74 in 10.0 mi SW 6.9 mph - N/A   Scattered Clouds
12:35 AM 73.8 °F 61.2 °F 65% 29.72 in 10.0 mi SSW 8.1 mph - N/A   Scattered Clouds
12:54 AM 73.6 °F 61.3 °F 65% 29.71 in 10.0 mi SSW 10.4 mph 17.3 mph N/A   Scattered Clouds
1:14 AM 73.6 °F 61.7 °F 66% 29.71 in 10.0 mi SSW 9.2 mph - N/A   Clear
1:35 AM 73.6 °F 63.1 °F 70% 29.71 in 10.0 mi SSW 5.8 mph - N/A   Scattered Clouds
1:54 AM 73.6 °F 64.6 °F 73% 29.70 in 10.0 mi SSW 5.8 mph - N/A   Scattered Clouds
2:15 AM 73.6 °F 65.1 °F 75% 29.71 in 10.0 mi SW 6.9 mph - N/A   Scattered Clouds
2:35 AM 73.6 °F 64.6 °F 73% 29.70 in 10.0 mi SW 4.6 mph - N/A   Mostly Cloudy
2:54 AM 73.6 °F 66.2 °F 78% 29.70 in 10.0 mi SW 4.6 mph - N/A   Scattered Clouds
3:15 AM 73.6 °F 67.1 °F 80% 29.69 in 10.0 mi SW 4.6 mph - N/A   Mostly Cloudy
3:35 AM 71.1 °F 66.2 °F 85% 29.71 in 10.0 mi WSW 6.9 mph - N/A Rain Rain
3:54 AM 68.5 °F 67.1 °F 95% 29.68 in 10.0 mi SW 10.4 mph - N/A Rain Light Rain
4:15 AM 68.5 °F 66.2 °F 92% 29.68 in 10.0 mi SW 8.1 mph - N/A Rain Light Rain
4:34 AM 68.4 °F 65.3 °F 90% 29.67 in 10.0 mi WSW 4.6 mph - N/A   Scattered Clouds
4:54 AM 66.2 °F 64.8 °F 95% 29.69 in 10.0 mi Calm Calm - N/A   Scattered Clouds
5:15 AM 66.2 °F 65.7 °F 98% 29.68 in 10.0 mi Calm Calm - N/A   Mostly Cloudy
5:34 AM 68.5 °F 68.4 °F 99% 29.69 in 10.0 mi West 3.5 mph - N/A   Overcast
5:54 AM 68.5 °F 68.5 °F 100% 29.70 in 10.0 mi SW 4.6 mph - N/A   Overcast
6:15 AM 68.5 °F 68.5 °F 100% 29.70 in 5.0 mi West 6.9 mph - N/A   Overcast
6:34 AM 68.2 °F 67.1 °F 96% 29.71 in 7.0 mi NW 12.7 mph 18.4 mph N/A   Overcast
6:54 AM 66.2 °F 63.5 °F 91% 29.71 in 10.0 mi NW 6.9 mph - N/A   Overcast
7:15 AM 66.2 °F 63.1 °F 90% 29.71 in 10.0 mi NW 8.1 mph - N/A   Overcast
7:34 AM 66.0 °F 63.1 °F 90% 29.71 in 10.0 mi WNW 5.8 mph - N/A   Overcast
7:55 AM 66.0 °F 62.1 °F 87% 29.71 in 10.0 mi NW 10.4 mph 16.1 mph N/A   Mostly Cloudy
8:15 AM 66.2 °F 60.6 °F 82% 29.72 in 10.0 mi NW 10.4 mph - N/A   Scattered Clouds
8:34 AM 63.5 °F 57.2 °F 80% 29.71 in 10.0 mi NNW 9.2 mph - N/A   Scattered Clouds
8:55 AM 66.6 °F 58.1 °F 74% 29.72 in 10.0 mi NW 10.4 mph - N/A   Mostly Cloudy
9:15 AM 66.2 °F 56.1 °F 70% 29.72 in 10.0 mi NNW 15.0 mph 19.6 mph N/A   Scattered Clouds
9:34 AM 68.5 °F 57.2 °F 67% 29.72 in 10.0 mi NNW 12.7 mph 18.4 mph N/A   Mostly Cloudy
9:55 AM 66.2 °F 56.5 °F 71% 29.73 in 10.0 mi NW 9.2 mph - N/A   Overcast
10:15 AM 68.5 °F 55.2 °F 62% 29.74 in 10.0 mi NNW 13.8 mph 23.0 mph N/A   Mostly Cloudy
10:34 AM 64.6 °F 53.1 °F 66% 29.75 in 10.0 mi NW 12.7 mph 23.0 mph N/A   Overcast
10:55 AM 66.2 °F 53.8 °F 64% 29.75 in 10.0 mi WNW 11.5 mph 17.3 mph N/A   Overcast
11:15 AM 66.4 °F 52.9 °F 62% 29.77 in 10.0 mi NW 15.0 mph 21.9 mph N/A   Overcast
11:34 AM 66.2 °F 53.6 °F 64% 29.78 in 10.0 mi WNW 11.5 mph 17.3 mph N/A   Overcast
11:55 AM 65.8 °F 54.0 °F 65% 29.79 in 10.0 mi WNW 13.8 mph - N/A   Overcast
12:14 PM 66.6 °F 53.2 °F 62% 29.80 in 10.0 mi NW 16.1 mph - N/A   Overcast
12:34 PM 65.8 °F 52.9 °F 63% 29.80 in 10.0 mi NW 13.8 mph 24.2 mph N/A   Overcast
12:55 PM 65.7 °F 52.5 °F 62% 29.81 in 10.0 mi WNW 15.0 mph 24.2 mph N/A   Overcast
1:14 PM 64.2 °F 50.7 °F 61% 29.80 in 10.0 mi NW 16.1 mph 25.3 mph N/A   Overcast
1:34 PM 67.5 °F 52.2 °F 58% 29.80 in 10.0 mi NW 17.3 mph 24.2 mph N/A   Overcast
1:55 PM 67.1 °F 50.5 °F 55% 29.80 in 10.0 mi NW 15.0 mph 25.3 mph N/A   Overcast
2:14 PM 62.4 °F 50.5 °F 65% 29.81 in 10.0 mi WNW 15.0 mph 26.5 mph N/A   Overcast
2:35 PM 61.2 °F 49.3 °F 65% 29.82 in 10.0 mi NW 18.4 mph 27.6 mph N/A   Overcast
2:55 PM 62.6 °F 48.7 °F 60% 29.82 in 10.0 mi WNW 23.0 mph 27.6 mph N/A   Overcast
3:14 PM 61.3 °F 48.4 °F 62% 29.83 in 10.0 mi WNW 17.3 mph 25.3 mph N/A   Overcast
3:35 PM 61.9 °F 48.4 °F 61% 29.83 in 10.0 mi WNW 17.3 mph 24.2 mph N/A   Overcast
3:54 PM 59.7 °F 49.1 °F 68% 29.84 in 10.0 mi NW 18.4 mph 25.3 mph N/A   Overcast
4:15 PM 58.5 °F 48.4 °F 69% 29.84 in 10.0 mi NW 15.0 mph 20.7 mph N/A   Overcast
4:35 PM 59.2 °F 48.4 °F 67% 29.85 in 10.0 mi NW 12.7 mph 21.9 mph N/A   Overcast
4:54 PM 60.6 °F 48.2 °F 64% 29.85 in 10.0 mi NW 12.7 mph 19.6 mph N/A   Overcast
5:15 PM 59.7 °F 47.8 °F 65% 29.85 in 10.0 mi NW 19.6 mph 24.2 mph N/A   Overcast
5:35 PM 59.9 °F 46.8 °F 62% 29.86 in 10.0 mi NW 19.6 mph 26.5 mph N/A   Overcast
5:54 PM 59.9 °F 46.0 °F 60% 29.86 in 10.0 mi NNW 17.3 mph 25.3 mph N/A   Overcast
6:15 PM 59.9 °F 46.2 °F 61% 29.87 in 10.0 mi NW 16.1 mph 27.6 mph N/A   Overcast
6:34 PM 59.9 °F 46.2 °F 61% 29.87 in 10.0 mi NNW 15.0 mph 26.5 mph N/A   Overcast
6:54 PM 59.7 °F 46.4 °F 61% 29.88 in 10.0 mi NW 24.2 mph 32.2 mph N/A   Overcast
7:14 PM 58.6 °F 45.5 °F 62% 29.88 in 10.0 mi NNW 13.8 mph 27.6 mph N/A   Overcast
7:34 PM 58.5 °F 45.5 °F 62% 29.89 in 10.0 mi NNW 16.1 mph 27.6 mph N/A   Overcast
7:55 PM 58.5 °F 45.5 °F 62% 29.89 in 10.0 mi NNW 17.3 mph 23.0 mph N/A   Overcast
8:14 PM 58.5 °F 45.7 °F 62% 29.90 in 10.0 mi NNW 15.0 mph 19.6 mph N/A   Overcast
8:34 PM 58.5 °F 46.4 °F 64% 29.91 in 10.0 mi NW 12.7 mph 18.4 mph N/A   Overcast
8:55 PM 57.9 °F 46.0 °F 65% 29.92 in 10.0 mi NNW 10.4 mph - N/A   Overcast
9:14 PM 56.5 °F 44.1 °F 63% 29.92 in 10.0 mi North 10.4 mph 17.3 mph N/A   Mostly Cloudy
9:34 PM 55.9 °F 44.6 °F 66% 29.93 in 10.0 mi North 6.9 mph - N/A   Scattered Clouds
9:55 PM 53.6 °F 44.6 °F 72% 29.94 in 10.0 mi NW 3.5 mph - N/A   Clear
10:14 PM 53.6 °F 45.3 °F 74% 29.94 in 10.0 mi NNW 3.5 mph - N/A   Clear
10:34 PM 50.2 °F 44.2 °F 80% 29.94 in 10.0 mi NNW 3.5 mph - N/A   Clear
10:55 PM 50.5 °F 45.5 °F 83% 29.94 in 10.0 mi NW 3.5 mph - N/A   Clear
11:14 PM 48.9 °F 44.6 °F 85% 29.95 in 10.0 mi NW 4.6 mph - N/A   Clear
11:35 PM 48.4 °F 44.8 °F 87% 29.95 in 10.0 mi NW 4.6 mph - N/A   Clear
11:55 PM 48.4 °F 45.5 °F 90% 29.96 in 10.0 mi WNW 4.6 mph - N/A   Clear